Forrest, Australia

2:09 PM AWST on February 27, 2017 (GMT +0800)
Forrest

Weather History for YFRT - March, 2013

Change the Weather History Date:

Friday, March 29, 2013

  Actual Average Record
Temperature  
Mean Temperature 58 °F -  
Max Temperature 67 °F 78 °F - ()
Min Temperature 48 °F 52 °F - ()
Degree Days  
Heating Degree Days 8    
Growing Degree Days 8 (Base 50)    
Moisture  
Dew Point 51 °F    
Average Humidity 76    
Maximum Humidity 100    
Minimum Humidity 35    
Precipitation  
Precipitation 0.01 in 0.02 in - ()
Sea Level Pressure  
Sea Level Pressure 30.19 in    
Wind  
Wind Speed 6 mph ()    
Max Wind Speed 15 mph    
Max Gust Speed -    
T = Trace of Precipitation, MM = Missing Value Source: Averaged Metar Reports

Daily Weather History Graph

Daily Weather History Graph

Search for Another Location

Airport or City:

Trip Planner

Search our weather history database for the weather conditions in past years. The results will help you decide how hot, cold, wet, or windy it might be!

Date:

Astronomy

Mar. 29, 2013 Rise Set
Actual Time 5:36 AM AWST 5:27 PM AWST
Civil Twilight 5:12 AM AWST 5:51 PM AWST
Nautical Twilight 4:44 AM AWST 6:19 PM AWST
Astronomical Twilight 4:16 AM AWST 6:47 PM AWST
Moon 6:37 PM AWST (3/29) 7:17 AM AWST (3/29)
Length of Visible Light 12h 39m
Length of Day
11h 51m
Waning Gibbous, 96% of the Moon is Illuminated
Mar 29
Waning Gibbous
Apr 3
Last Quarter
Apr 10
New
Apr 18
First Quarter
Apr 26
Full

Hourly Weather History & Observations

Time (AWST) Temp. Dew Point Humidity Pressure Visibility Wind Dir Wind Speed Gust Speed Precip Events Conditions
12:00 AM 53 °F 52 °F 94% 30.25 in - SE 6.9 mph - -  
12:00 AM 53.6 °F 51.8 °F 94% 30.27 in - SE 6.9 mph - N/A   Unknown
1:00 AM 51.8 °F 51.8 °F 100% 30.24 in - ESE 6.9 mph - N/A   Unknown
2:00 AM 51 °F 50 °F 97% 30.24 in - East 4.6 mph - -  
2:00 AM 51.8 °F 50.0 °F 94% 30.24 in - East 4.6 mph - N/A   Unknown
3:00 AM 51 °F 50 °F 97% 30.22 in - SSE 6.9 mph - -  
3:00 AM 51.8 °F 50.0 °F 94% 30.21 in - SSE 6.9 mph - N/A   Unknown
4:00 AM 50.0 °F 48.2 °F 94% 30.24 in - Calm Calm - N/A   Unknown
5:00 AM 50 °F 49 °F 97% 30.24 in - SE 4.6 mph - -  
5:00 AM 50.0 °F 50.0 °F 100% 30.24 in - SE 4.6 mph - N/A   Unknown
6:00 AM 51 °F 50 °F 97% 30.25 in - ESE 4.6 mph - -  
6:00 AM 50.0 °F 50.0 °F 100% 30.24 in - ESE 4.6 mph - N/A   Unknown
7:00 AM 53.6 °F 53.6 °F 100% 30.24 in - East 5.8 mph - N/A   Unknown
8:00 AM 60 °F 59 °F 94% 30.25 in - ENE 5.8 mph - -  
8:00 AM 59.0 °F 59.0 °F 100% 30.24 in - ENE 5.8 mph - N/A   Unknown
9:00 AM 63 °F 51 °F 56% 30.26 in - ENE 11.5 mph - -  
9:00 AM 62.6 °F 51.8 °F 68% 30.27 in - ENE 11.5 mph - N/A   Unknown
10:00 AM 64.4 °F 50.0 °F 59% 30.24 in - ENE 15.0 mph - N/A   Unknown
11:00 AM 66 °F 48 °F 41% 30.21 in - East 9.2 mph - -  
11:00 AM 66.2 °F 48.2 °F 52% 30.21 in - East 9.2 mph - N/A   Unknown
12:00 PM 66 °F 46 °F 37% 30.19 in - East 9.2 mph - -  
12:00 PM 66.2 °F 46.4 °F 49% 30.18 in - East 9.2 mph - N/A   Unknown
1:00 PM 66.2 °F 46.4 °F 49% 30.15 in - ENE 10.4 mph - N/A   Unknown
2:00 PM 66 °F 46 °F 36% 30.16 in - NE 6.9 mph - -  
2:00 PM 66.2 °F 46.4 °F 49% 30.15 in - NE 6.9 mph - N/A   Unknown
3:00 PM 67 °F 46 °F 35% 30.12 in - ESE 5.8 mph - -  
3:00 PM 66.2 °F 46.4 °F 49% 30.12 in - ESE 5.8 mph - N/A   Unknown
4:00 PM 66.2 °F 46.4 °F 49% 30.15 in - East 4.6 mph - N/A   Unknown
5:00 PM 65 °F 48 °F 43% 30.13 in - ESE 2.3 mph - -  
5:00 PM 64.4 °F 48.2 °F 56% 30.12 in - ESE 2.3 mph - N/A   Unknown
6:00 PM 62 °F 52 °F 62% 30.12 in - SSE 8.1 mph - -  
6:00 PM 62.6 °F 51.8 °F 68% 30.12 in - SSE 8.1 mph - N/A   Unknown
7:00 PM 60.8 °F 53.6 °F 77% 30.15 in - SSW 4.6 mph - N/A   Unknown
8:00 PM 60 °F 59 °F 94% 30.16 in - SE 3.5 mph - -  
8:00 PM 60.8 °F 59.0 °F 94% 30.15 in - SE 3.5 mph - N/A   Unknown
9:00 PM 60 °F 59 °F 97% 30.16 in - SE 6.9 mph - -  
9:00 PM 60.8 °F 59.0 °F 94% 30.15 in - SE 6.9 mph - N/A   Unknown
10:00 PM 60.8 °F 59.0 °F 94% 30.15 in - SSE 4.6 mph - N/A   Unknown
11:00 PM 59 °F 59 °F 98% 30.14 in - ESE 5.8 mph - -  
11:00 PM 59.0 °F 59.0 °F 100% 30.15 in - ESE 5.8 mph - N/A   Unknown